sat.trackr.live / text

‹ back to catalog

STARLINK-31528

NORAD 59010 · 2024-036N

PAYLOAD ACTIVE UNKNOWN

§ Identity

Operator
Country
US
Launch date
2024-02-23
Launch site
AFWTR
Launch vehicle
Mass (kg)
RCS (m²)

Purposes: comms

External: N2YO · Heavens-Above · Gunter

§ Orbital elements

Epoch: 2026-09-20T16:12:07.673184Z

Period
93.85 min
Inclination
53.1597°
Eccentricity
0.0000862
Mean motion
15.34377858 rev/d
Perigee alt
462.2 km
Apogee alt
463.4 km
Semi-major
6,840.9 km
B*
-6.5271e-5
RAAN
251.2206°
Arg perigee
96.3380°
Mean anomaly
263.7721°
Rev number
14,519

§ Raw data

STARLINK-315281 59010U 24036N   26263.67508881 -.00002579  00000+0 -65271-4 0  99912 59010  53.1597 251.2206 0000862  96.3380 263.7721 15.34377858145199

JSON: /api/v1/satellites/59010 · /tle

For live sub-satellite position, see the globe view (requires WebGL).

§ Visibility from observer

Set your observer location to see the next 7 days of passes ≥ 10°. The values pass through the URL so the page stays shareable.

No JS? Fill the form by hand. The geolocation button needs JavaScript.